International Skating Union - Official Site

ESSENT ISU WORLD ALLROUND CHAMPIONSHIPS 2011
February 12-13, 2011

Draw | Lap Times | Index | Classification

Referee: Erik  ØSMUNDSET  (NOR)
Starter: Bruce  LANSER  (USA)
StartTime: EndTime: Air Temp: Ice Temp: Humidity:
13:49 14:54 16℃ -8.4℃ 28%
Result 3000m Ladies
Rankings as of Feb 12 2011 3:21PM
Rank: No.: Name: Nation: Time: Behind: Points:
1 7 Martina  SÁBLIKOVÁ CZE CZE 3:55.55200m - 20.19 - (20.1)
600m - 50.51 - (30.3)
1000m - 1:20.92 - (30.4)
1400m - 1:51.36 - (30.4)
1800m - 2:21.99 - (30.6)
2200m - 2:52.74 - (30.7)
2600m - 3:23.77 - (31.0)
3000m - 3:55.55 - (31.7)
39.258
2 16 Ireen  WÜST NED NED 3:58.01200m - 19.43 - (19.4)
600m - 49.42 - (29.9)
1000m - 1:19.56 - (30.1)
1400m - 1:50.10 - (30.5)
1800m - 2:20.78 - (30.6)
2200m - 2:52.11 - (31.3)
2600m - 3:24.38 - (32.2)
3000m - 3:58.01 - (33.6)
2.46 39.668
3 8 Stephanie  BECKERT GER GER 4:00.77200m - 20.83 - (20.8)
600m - 52.06 - (31.2)
1000m - 1:23.20 - (31.1)
1400m - 1:54.32 - (31.1)
1800m - 2:25.69 - (31.3)
2200m - 2:57.19 - (31.5)
2600m - 3:29.22 - (32.0)
3000m - 4:00.77 - (31.5)
5.22 40.128
4 14 Diane  VALKENBURG NED NED 4:02.44200m - 20.02 - (20.0)
600m - 50.89 - (30.8)
1000m - 1:21.58 - (30.6)
1400m - 1:52.58 - (31.0)
1800m - 2:23.96 - (31.3)
2200m - 2:55.86 - (31.9)
2600m - 3:28.22 - (32.3)
3000m - 4:02.44 - (34.2)
6.89 40.406
5 10 Masako  HOZUMI JPN JPN 4:02.52200m - 20.33 - (20.3)
600m - 50.65 - (30.3)
1000m - 1:21.50 - (30.8)
1400m - 1:52.77 - (31.2)
1800m - 2:24.47 - (31.7)
2200m - 2:56.53 - (32.0)
2600m - 3:29.20 - (32.6)
3000m - 4:02.52 - (33.3)
6.97 40.420
6 3 Cindy  KLASSEN CAN CAN 4:02.55200m - 19.91 - (19.9)
600m - 50.06 - (30.1)
1000m - 1:20.81 - (30.7)
1400m - 1:51.69 - (30.8)
1800m - 2:22.81 - (31.1)
2200m - 2:54.40 - (31.5)
2600m - 3:27.21 - (32.8)
3000m - 4:02.55 - (35.3)
7.00 40.425
7 13 Marrit  LEENSTRA NED NED 4:02.74200m - 19.56 - (19.5)
600m - 50.58 - (31.0)
1000m - 1:21.51 - (30.9)
1400m - 1:52.82 - (31.3)
1800m - 2:24.46 - (31.6)
2200m - 2:56.37 - (31.9)
2600m - 3:28.95 - (32.5)
3000m - 4:02.74 - (33.7)
7.19 40.456
8 4 Christine  NESBITT CAN CAN 4:03.44200m - 19.66 - (19.6)
600m - 49.67 - (30.0)
1000m - 1:20.31 - (30.6)
1400m - 1:51.27 - (30.9)
1800m - 2:22.54 - (31.2)
2200m - 2:54.98 - (32.4)
2600m - 3:28.54 - (33.5)
3000m - 4:03.44 - (34.9)
7.89 40.573
9 11 Eriko  ISHINO JPN JPN 4:03.59200m - 20.19 - (20.1)
600m - 50.86 - (30.6)
1000m - 1:21.75 - (30.8)
1400m - 1:52.94 - (31.1)
1800m - 2:24.65 - (31.7)
2200m - 2:57.07 - (32.4)
2600m - 3:30.16 - (33.0)
3000m - 4:03.59 - (33.4)
8.04 40.598
10 24 Jilleanne  ROOKARD USA USA 4:04.15200m - 20.17 - (20.1)
600m - 50.42 - (30.2)
1000m - 1:21.25 - (30.8)
1400m - 1:52.58 - (31.3)
1800m - 2:24.51 - (31.9)
2200m - 2:57.04 - (32.5)
2600m - 3:30.14 - (33.1)
3000m - 4:04.15 - (34.0)
8.60 40.691
11 5 Brittany  SCHUSSLER CAN CAN 4:04.23200m - 20.26 - (20.2)
600m - 50.66 - (30.4)
1000m - 1:21.39 - (30.7)
1400m - 1:52.61 - (31.2)
1800m - 2:24.03 - (31.4)
2200m - 2:56.56 - (32.5)
2600m - 3:29.75 - (33.1)
3000m - 4:04.23 - (34.4)
8.68 40.705
12 15 Jorien  VOORHUIS NED NED 4:04.43200m - 19.73 - (19.7)
600m - 50.88 - (31.1)
1000m - 1:22.67 - (31.7)
1400m - 1:54.91 - (32.2)
1800m - 2:27.03 - (32.1)
2200m - 2:59.20 - (32.1)
2600m - 3:31.59 - (32.3)
3000m - 4:04.43 - (32.8)
8.88 40.738
13 19 Ida  NJÅTUN NOR NOR 4:06.46200m - 20.30 - (20.3)
600m - 51.69 - (31.3)
1000m - 1:23.40 - (31.7)
1400m - 1:55.70 - (32.3)
1800m - 2:27.69 - (31.9)
2200m - 3:00.26 - (32.5)
2600m - 3:33.14 - (32.8)
3000m - 4:06.46 - (33.3)
10.91 41.076
14 9 Isabell  OST GER GER 4:07.51200m - 20.66 - (20.6)
600m - 52.72 - (32.0)
1000m - 1:25.01 - (32.2)
1400m - 1:57.17 - (32.1)
1800m - 2:29.76 - (32.5)
2200m - 3:01.91 - (32.1)
2600m - 3:34.64 - (32.7)
3000m - 4:07.51 - (32.8)
11.96 41.251
15 20 Luiza  ZLOTKOWSKA POL POL 4:07.58200m - 20.49 - (20.4)
600m - 52.28 - (31.7)
1000m - 1:24.32 - (32.0)
1400m - 1:56.42 - (32.1)
1800m - 2:28.63 - (32.2)
2200m - 3:01.10 - (32.4)
2600m - 3:34.01 - (32.9)
3000m - 4:07.58 - (33.5)
12.03 41.263
16 2 Ivanie  BLONDIN CAN CAN 4:07.86200m - 20.57 - (20.5)
600m - 51.57 - (31.0)
1000m - 1:23.57 - (32.0)
1400m - 1:55.44 - (31.8)
1800m - 2:27.99 - (32.5)
2200m - 3:00.38 - (32.3)
2600m - 3:33.64 - (33.2)
3000m - 4:07.86 - (34.2)
12.31 41.310
17 21 Yekaterina  LOBYSHEVA RUS RUS 4:08.12200m - 19.81 - (19.8)
600m - 50.82 - (31.0)
1000m - 1:22.24 - (31.4)
1400m - 1:53.86 - (31.6)
1800m - 2:25.34 - (31.4)
2200m - 2:57.83 - (32.4)
2600m - 3:31.91 - (34.0)
3000m - 4:08.12 - (36.2)
12.57 41.353
18 18 Mari  HEMMER NOR NOR 4:09.40200m - 20.65 - (20.6)
600m - 52.64 - (31.9)
1000m - 1:24.77 - (32.1)
1400m - 1:57.51 - (32.7)
1800m - 2:30.15 - (32.6)
2200m - 3:03.14 - (32.9)
2600m - 3:36.28 - (33.1)
3000m - 4:09.40 - (33.1)
13.85 41.566
19 22 Yekaterina  SHIKHOVA RUS RUS 4:11.55200m - 20.41 - (20.4)
600m - 51.64 - (31.2)
1000m - 1:23.41 - (31.7)
1400m - 1:56.18 - (32.7)
1800m - 2:29.77 - (33.5)
2200m - 3:03.71 - (33.9)
2600m - 3:37.72 - (34.0)
3000m - 4:11.55 - (33.8)
16.00 41.925
20 12 Ayaka  KIKUCHI JPN JPN 4:11.86200m - 20.83 - (20.8)
600m - 52.54 - (31.7)
1000m - 1:24.64 - (32.1)
1400m - 1:57.12 - (32.4)
1800m - 2:29.99 - (32.8)
2200m - 3:03.38 - (33.3)
2600m - 3:37.52 - (34.1)
3000m - 4:11.86 - (34.3)
16.31 41.976
21 17 Hege  BØKKO NOR NOR 4:12.81200m - 19.96 - (19.9)
600m - 52.16 - (32.2)
1000m - 1:24.56 - (32.4)
1400m - 1:57.46 - (32.9)
1800m - 2:30.29 - (32.8)
2200m - 3:04.24 - (33.9)
2600m - 3:38.18 - (33.9)
3000m - 4:12.81 - (34.6)
17.26 42.135
22 1 Anna  ROKITA AUT AUT 4:13.03200m - 20.28 - (20.2)
600m - 51.77 - (31.4)
1000m - 1:24.44 - (32.6)
1400m - 1:57.45 - (33.0)
1800m - 2:30.50 - (33.0)
2200m - 3:04.37 - (33.8)
2600m - 3:38.48 - (34.1)
3000m - 4:13.03 - (34.5)
17.48 42.171
23 23 Maria  LAMB USA USA 4:16.64200m - 21.06 - (21.0)
600m - 53.24 - (32.1)
1000m - 1:26.05 - (32.8)
1400m - 1:58.61 - (32.5)
1800m - 2:32.60 - (33.9)
2200m - 3:06.14 - (33.5)
2600m - 3:40.55 - (34.4)
3000m - 4:16.64 - (36.1)
21.09 42.773
24 6 Karolina  ERBANOVÁ CZE CZE 4:17.73200m - 19.48 - (19.4)
600m - 51.03 - (31.5)
1000m - 1:23.64 - (32.6)
1400m - 1:57.08 - (33.4)
1800m - 2:31.75 - (34.6)
2200m - 3:06.90 - (35.1)
2600m - 3:42.28 - (35.3)
3000m - 4:17.73 - (35.4)
22.18 42.955